GW0587 Weather Reports


time (UTC)temp
F
wind
direction
speed
knots
gust
knots
rain 1hr
in
rain 24hr
in
rain mn
in
humidity
%
barometer
mb
20260906064554 81 0 0.0 4.3 0.00 0.00 0.00 80 1012.3
20260906063049 81 0 0.0 0.0 0.00 0.00 0.00 80 1012.3
20260906061552 81 0 0.0 0.0 0.00 0.00 0.00 80 1012.3
20260906060047 81 0 0.0 0.0 0.00 0.00 0.00 79 1012.5
20260906054603 81 0 0.0 0.0 0.00 0.00 0.00 78 1012.6
20260906053058 81 0 0.0 0.0 0.00 0.00 0.00 77 1012.4
20260906051606 82 0 0.0 0.0 0.00 0.00 0.00 76 1012.4
20260906050058 82 0 0.0 0.0 0.00 0.00 0.00 76 1012.4
20260906044558 82 0 0.0 0.0 0.00 0.00 0.00 76 1012.5
20260906043048 82 0 0.0 0.0 0.00 0.00 0.00 74 1012.3
20260906041551 82 0 0.0 0.0 0.00 0.00 0.00 74 1012.3
20260906040134 83 0 0.0 0.0 0.00 0.00 0.00 74 1012.4
20260906034601 83 0 0.0 0.0 0.00 0.00 0.00 73 1012.3
20260906033102 84 0 0.0 0.0 0.00 0.00 0.00 73 1012.4
20260906031546 84 0 0.0 0.0 0.00 0.00 0.00 72 1012.2
20260906030057 84 0 0.0 0.0 0.00 0.00 0.00 71 1012.3
20260906024605 85 0 0.0 0.0 0.00 0.00 0.00 70 1012.2
20260906023057 85 0 0.0 0.0 0.00 0.00 0.00 70 1012.1
20260906021605 85 0 0.0 0.0 0.00 0.00 0.00 69 1012.1
20260906020100 86 0 0.0 0.0 0.00 0.00 0.00 68 1012.0
20260906014601 86 0 0.0 0.0 0.00 0.00 0.00 67 1011.8
20260906013107 87 0 0.0 0.0 0.00 0.00 0.00 66 1011.4
20260906011548 88 0 0.0 0.0 0.00 0.00 0.00 65 1011.2
20260906010100 89 0 0.0 0.0 0.00 0.00 0.00 63 1011.3
20260906004556 90 0 0.0 0.0 0.00 0.00 0.00 61 1011.4
20260906003048 92 0 0.0 0.9 0.00 0.00 0.00 59 1011.1
20260906001549 93 0 0.0 0.0 0.00 0.00 0.00 56 1011.1
20260906000048 94 0 0.0 0.0 0.00 0.00 0.00 55 1011.4
20260905234554 95 0 0.0 1.7 0.00 0.00 0.00 53 1011.4
20260905233056 96 0 0.0 2.6 0.00 0.00 0.00 50 1011.1
20260905231550 96 25 0.0 3.5 0.00 0.00 0.00 50 1011.3
20260905230106 96 325 0.9 6.1 0.00 0.00 0.00 50 1011.2
20260905224614 97 5 0.9 3.5 0.00 0.00 0.00 50 1011.4
20260905223052 97 0 0.9 7.0 0.00 0.00 0.00 49 1011.2
20260905221548 98 44 1.7 7.0 0.00 0.00 0.00 49 1011.2
20260905220059 98 109 0.9 3.5 0.00 0.00 0.00 45 1011.3
20260905214558 98 98 1.7 5.2 0.00 0.00 0.00 46 1011.3
20260905213050 99 75 0.9 4.3 0.00 0.00 0.00 45 1011.4
20260905211549 99 352 0.9 7.0 0.00 0.00 0.00 45 1011.5
20260905210101 99 18 2.6 7.0 0.00 0.00 0.00 45 1011.6
20260905204601 100 60 1.7 9.6 0.00 0.00 0.00 45 1011.6
20260905203055 101 59 1.7 7.8 0.00 0.00 0.00 44 1011.9
20260905201549 100 0 0.9 5.2 0.00 0.00 0.00 43 1012.1
20260905200049 100 306 0.9 5.2 0.00 0.00 0.00 44 1012.4
20260905194556 100 344 0.9 4.3 0.00 0.00 0.00 43 1012.5
20260905193050 101 21 0.9 7.8 0.00 0.00 0.00 42 1012.7
20260905191554 100 352 1.7 7.0 0.00 0.00 0.00 44 1012.8
20260905190045 100 345 1.7 5.2 0.00 0.00 0.00 45 1013.1
20260905184600 101 350 1.7 6.1 0.00 0.00 0.00 46 1013.2
20260905183050 100 132 0.9 9.6 0.00 0.00 0.00 46 1013.3
20260905181547 100 119 0.9 5.2 0.00 0.00 0.00 47 1013.5
20260905180104 100 257 0.9 5.2 0.00 0.00 0.00 47 1013.6
20260905174553 100 294 1.7 7.0 0.00 0.00 0.00 47 1013.9
20260905173105 99 352 1.7 7.0 0.00 0.00 0.00 48 1014.0
20260905171547 98 13 0.9 7.8 0.00 0.00 0.00 50 1014.1
20260905170110 98 5 1.7 5.2 0.00 0.00 0.00 51 1014.2
20260905164553 97 123 0.9 7.0 0.00 0.00 0.00 53 1014.5
20260905163117 97 138 0.9 3.5 0.00 0.00 0.00 53 1014.6
20260905161609 96 128 0.9 3.5 0.00 0.00 0.00 55 1014.8
20260905160056 96 38 0.9 3.5 0.00 0.00 0.00 55 1014.8
20260905154559 95 45 0.0 3.5 0.00 0.00 0.00 57 1014.8
20260905153048 94 0 0.0 2.6 0.00 0.00 0.00 58 1014.9
20260905151553 94 352 0.9 2.6 0.00 0.00 0.00 59 1014.9
20260905150051 93 339 0.9 2.6 0.00 0.00 0.00 60 1015.0
20260905144549 92 0 0.0 1.7 0.00 0.00 0.00 62 1014.8
20260905143048 91 58 0.9 2.6 0.00 0.00 0.00 63 1014.9
20260905141548 90 0 0.0 2.6 0.00 0.00 0.00 65 1014.9
20260905140049 89 0 0.0 1.7 0.00 0.00 0.00 66 1014.6
20260905134557 88 0 0.0 0.0 0.00 0.00 0.00 68 1014.8
20260905133058 86 0 0.0 0.0 0.00 0.00 0.00 72 1015.0
20260905131600 85 0 0.0 0.0 0.00 0.00 0.00 74 1014.7
20260905130059 83 0 0.0 0.0 0.00 0.00 0.00 78 1014.8
20260905124559 81 0 0.0 0.0 0.00 0.00 0.00 82 1014.8
20260905123105 79 0 0.0 0.0 0.00 0.00 0.00 85 1014.6
20260905121554 78 0 0.0 0.0 0.00 0.00 0.00 86 1014.6
20260905120050 77 0 0.0 0.0 0.00 0.00 0.00 86 1014.6
20260905114603 77 0 0.0 0.0 0.00 0.00 0.00 86 1014.6
20260905113054 77 0 0.0 0.0 0.00 0.00 0.00 86 1014.3
20260905111552 77 0 0.0 0.0 0.00 0.00 0.00 85 1014.2
20260905110047 77 0 0.0 0.0 0.00 0.00 0.00 85 1014.0
20260905104555 78 0 0.0 0.0 0.00 0.00 0.00 85 1014.0
20260905103104 78 0 0.0 0.0 0.00 0.00 0.00 84 1014.1
20260905101605 78 0 0.0 0.0 0.00 0.00 0.00 83 1013.9
20260905100117 78 0 0.0 0.0 0.00 0.00 0.00 83 1014.1
20260905094550 79 0 0.0 0.0 0.00 0.00 0.00 82 1014.1
20260905093059 79 0 0.0 0.0 0.00 0.00 0.00 82 1013.9
20260905091601 79 0 0.0 0.0 0.00 0.00 0.00 81 1013.8
20260905090052 79 0 0.0 0.0 0.00 0.00 0.00 81 1014.0
20260905084552 79 0 0.0 0.0 0.00 0.00 0.00 80 1013.9
20260905083105 80 0 0.0 0.0 0.00 0.00 0.00 80 1014.0
20260905081558 80 0 0.0 0.0 0.00 0.00 0.00 80 1013.9
20260905080051 80 0 0.0 0.0 0.00 0.00 0.00 79 1013.9
20260905074549 80 0 0.0 0.0 0.00 0.00 0.00 78 1013.9
20260905073049 80 0 0.0 0.0 0.00 0.00 0.00 77 1014.1
20260905071557 81 0 0.0 0.0 0.00 0.00 0.00 77 1014.1
20260905070058 81 0 0.0 0.0 0.00 0.00 0.00 76 1013.9